Regional Weather Roundup
Issued by NWS Green Bay, WI

Home | Current Version | Previous Version | Graphics & Text | Print | Product List | Glossary Off
Versions: 1 2 3 4 5 6 7 8 9 10 11 12 13 14 15 16 17 18 19 20 21 22 23 24 25 26 27 28 29 30 31 32 33 34 35 36 37 38 39 40 41 42 43 44 45 46 47 48 49 50

341
ASUS43 KGRB 221001
RWRGRB

NORTH-CENTRAL AND NORTHEAST WISCONSIN REGIONAL WEATHER ROUNDUP
NATIONAL WEATHER SERVICE GREEN BAY WI
500 AM CDT FRI SEP 22 2017

WIZ005-009-010>012-018-019-221100-
NORTH CENTRAL WISCONSIN

CITY           SKY/WX    TMP DP  RH WIND       PRES   REMARKS
IRONWOOD       CLOUDY    70  66  87 SW8G17    29.93R
MANITOWISH WTR NOT AVBL
ARBOR VITAE    NOT AVBL
EAGLE RIVER    NOT AVBL
LAND O LAKES   NOT AVBL
RHINELANDER    MOCLDY    70  67  90 S6        30.00S
PHILLIPS       NOT AVBL
ANTIGO         NOT AVBL
TOMAHAWK       NOT AVBL
MERRILL        NOT AVBL
$$

WIZ013-073-221100-
NORTHEAST WISCONSIN

CITY           SKY/WX    TMP DP  RH WIND       PRES   REMARKS
IRON MOUNTAIN  FOG       64  62  93 SE6       29.99S VSB 1
MARINETTE      FOG       64  63  96 CALM      30.01R VSB 1
$$

WIZ017-030-035>037-045-221100-
CENTRAL WISCONSIN

CITY           SKY/WX    TMP DP  RH WIND       PRES   REMARKS
MEDFORD        NOT AVBL
WAUSAU         MOCLDY    66  65  96 SE6       29.98S
MOSINEE        NOT AVBL
MARSHFIELD     CLOUDY    69  65  86 S7        29.98S
WISC RAPIDS    CLEAR     67  66  97 S3        30.00R
STEVENS POINT  NOT AVBL
WAUPACA        NOT AVBL
SHAWANO        NOT AVBL
CLINTONVILLE   NOT AVBL
WAUTOMA        MOCLDY    63  62  97 CALM      30.00S
$$

WIZ038-039-048-051-221100-
FOX VALLEY

CITY           SKY/WX    TMP DP  RH WIND       PRES   REMARKS
NWS GREEN BAY  CLEAR     69  68  96 S5        30.01R FOG
APPLETON       NOT AVBL
OSHKOSH        CLEAR     69  67  93 S6        30.01R
FOND DU LAC    CLEAR     69  65  86 S6        30.02R
$$

WIZ022-050-052-221100-
EAST CENTRAL WISCONSIN

CITY           SKY/WX    TMP DP  RH WIND       PRES   REMARKS
EPHRAIM        NOT AVBL
WASHINGTON ISL NOT AVBL
STURGEON BAY   CLEAR     69  67  93 S8        30.00S FOG
MANITOWOC      CLEAR     65  64  97 SE5       30.03R FOG
SHEBOYGAN      MOCLDY    64  64 100 S3        30.03R FOG
$$

LMZ563-521-522-541>543-221100-
LAKESHORE

STATION/POSITION TIME  TEMP    WIND        PRES    VSBY  WAVE
                       AIR SEA DIR/SP/G                  HT/PER
                 (UTC) (F)     (DEG/KT/KT) (MB)    (MI)  (FT/S)
SHEBOYGAN LKSHOR 0900   70     190/  5/  6 1016.1R
KEWAUNEE LKSHORE 0930   63     180/  4/  5 1015.6R
NORTHPORT PIER   0940   67     150/  5/  9 1015.9R
N MID LAKE BUOY  0850   69 65  170/  8/ 10 1016.4S         0
S GREEN BAY BUOY 0930   69 67  200/  6/  8 1015.5R
SISTER BAY LKSHO 0919   68     130/  3/  5   N/A
MENOMINEE LKSHOR 0930   71     220/  4/  5 1015.3R
$$




USA.gov is the U.S. government's official web portal to all federal, state and local government web resources and services.